Flag for U.S.A. Weather past 2 weeks in San Jose, California, U.S.A.

69 °F


Feels Like: 69 °F
Forecast: 63 / 88 °F
Wind: No wind

Location: San Jose International Airport

Current Time: Oct 13, 2015 at 12:30:17 AM

Latest Report: Oct 12, 2015 at 11:53 PM

Visibility: 10 mi

Pressure: 29.97 "Hg

Humidity: 66%

Dew point: 57 °F

Location of San JoseLocation

Historic Weather in San Jose — Graph


San Jose temperature yesterday

Maximum temperature yesterday: 87 °F (at 2:53 PM)
Minimum temperature yesterday: 57 °F (at 4:53 AM)
Average temperature yesterday: 71 °F

Past Weeks' High & Low Weather Summary

High87 °F (Oct 12, 2:53 PM)100% (Oct 10, 7:01 AM)30.14 "Hg (Oct 10, 7:01 AM)
Low54 °F (Oct 3, 5:53 AM)25% (Oct 8, 2:53 PM)29.47 "Hg (Oct 3, 10:53 PM)
Average66 °F71%29.94 "Hg
* Reported Sep 27 10:53 PM — Oct 12 10:53 PM, San Jose, Weather by CustomWeather, © 2015

Note: Actual official high and low records may vary slightly from our data, if they occured in-between our weather recording intervals... More about our weather records


San Jose weather history for previous 24 hours

Time TempWeatherWind HumidityBarometerVisibility
10:53 PM
Mon, Oct 12
71 °FPassing clouds.No wind59%29.96 "Hg10 mi
9:53 PM73 °FPassing clouds.No wind57%29.95 "Hg10 mi
8:53 PM72 °FPassing clouds.7 mph59%29.93 "Hg10 mi
7:53 PM74 °FPassing clouds.6 mph56%29.92 "Hg10 mi
6:53 PM79 °FPassing clouds.7 mph47%29.90 "Hg10 mi
5:53 PM85 °FPassing clouds.6 mph36%29.89 "Hg10 mi
4:53 PM87 °FSunny.8 mph35%29.89 "Hg10 mi
3:53 PM87 °FSunny.6 mph36%29.89 "Hg10 mi
2:53 PM87 °FSunny.3 mph33%29.90 "Hg10 mi
1:53 PM85 °FSunny.No wind36%29.92 "Hg10 mi
12:53 PM82 °FSunny.No wind38%29.95 "Hg10 mi
11:53 AM79 °FSunny.3 mph44%29.97 "Hg10 mi
10:53 AM73 °FSunny.No wind53%29.98 "Hg10 mi
9:53 AM68 °FSunny.No wind70%29.99 "Hg10 mi
8:53 AM62 °FSunny.No wind80%29.98 "Hg10 mi
7:53 AM58 °FClear.No wind87%29.97 "Hg10 mi
6:53 AM57 °FClear.3 mph87%29.97 "Hg10 mi
5:53 AM57 °FClear.No wind90%29.96 "Hg10 mi
4:53 AM57 °FClear.No wind90%29.95 "Hg10 mi
3:53 AM58 °FClear.No wind87%29.96 "Hg10 mi
2:53 AM59 °FClear.No wind90%29.97 "Hg10 mi
1:53 AM60 °FClear.No wind90%29.96 "Hg10 mi
12:53 AM60 °FClear.No wind90%29.96 "Hg10 mi
Weather by CustomWeather, © 2015

See weather overviewHow to use our weather pages